Flag for Austria Weather past 2 weeks in Enns, Upper Austria, Austria

Now
57 °F

Rain showers. Low clouds.


Feels Like: N/A
Forecast: 46 / 75 °F
Wind: N/A

Location: Linz / Hoersching-Flughafen

Current Time: Aug 21, 2014 at 11:16:36 AM

Latest Report: Aug 21, 2014 at 10:00 AM


Visibility: 10 mi

Pressure: 30.07 "Hg

Humidity: 87%

Dew point: 53 °F

Location of EnnsLocation

Historic Weather in Enns — Graph

°F

Enns temperature yesterday

Maximum temperature yesterday: 61 °F (at 12:00 AM)
Minimum temperature yesterday: 55 °F (at 11:00 PM)
Average temperature yesterday: 58 °F

Past Weeks' High & Low Weather Summary

 TemperatureHumidityPressure
High83 °F (Aug 10, 5:00 PM)97% (Aug 21, 2:00 AM)30.15 "Hg (Aug 21, 2:00 AM)
Low51 °F (Aug 17, 4:00 AM)39% (Aug 8, 5:00 PM)29.68 "Hg (Aug 13, 7:00 PM)
Average63 °F77%29.96 "Hg
* Reported Aug 6 10:00 AM — Aug 21 10:00 AM, Enns, Weather by CustomWeather, © 2014

Note: Actual official high and low records may vary slightly from our data, if they occured in-between our weather recording intervals... More about our weather records

Advertising

Enns weather history for previous 24 hours

 ConditionsComfort  
Time TempWeatherWind HumidityBarometerVisibility
10:00 AM
Aug 21
57 °FRain showers. Low clouds.N/A87%30.07 "Hg10 mi
9:00 AM56 °FLow clouds.N/A88%30.06 "Hg7 mi
8:00 AM54 °FRain. Low clouds.N/A97%30.05 "Hg2 mi
6:00 AM53 °FPassing clouds.N/A97%30.03 "Hg2 mi
5:00 AM54 °FLow clouds.N/A96%30.04 "Hg4 mi
4:00 AM55 °FLight rain. Low clouds.N/A95%30.04 "Hg3 mi
3:00 AM55 °FLight rain. Low clouds.N/A95%30.04 "Hg4 mi
2:00 AM55 °FLight rain. Low clouds.N/A97%30.03 "Hg2 mi
1:00 AM54 °FLight rain. Overcast.N/A96%30.05 "Hg4 mi
12:00 AM55 °FLight rain. Overcast.N/A94%30.06 "Hg6 mi
11:00 PM
Aug 20
55 °FOvercast.N/A93%30.06 "Hg13 mi
10:00 PM55 °FOvercast.N/A91%30.05 "Hg15 mi
9:00 PM56 °FOvercast.N/A91%30.04 "Hg22 mi
8:00 PM56 °FPartly sunny.N/A88%30.03 "Hg25 mi
7:00 PM56 °FLight rain. Overcast.N/A83%30.03 "Hg25 mi
6:00 PM59 °FRain showers. Overcast.N/A78%30.02 "Hg19 mi
5:00 PM60 °FOvercast.N/A73%30.02 "Hg28 mi
4:00 PM61 °FOvercast.N/A72%30.04 "Hg25 mi
3:00 PM60 °FOvercast.N/A69%30.04 "Hg19 mi
2:00 PM59 °FOvercast.N/A79%30.06 "Hg22 mi
1:00 PM58 °FOvercast.N/A76%30.06 "Hg28 mi
12:00 PM57 °FOvercast.N/A78%30.07 "Hg28 mi
11:00 AM57 °FLight rain. Overcast.N/A80%30.07 "Hg7 mi
Weather by CustomWeather, © 2014

See weather overviewHow to use our weather pages